+ View the NASA Portal
+ Center for Near-Earth Object Studies
IMPORTANT:
The SSD Announcement email list is now available. Major changes are coming in the near future, including possible hostname and/or URL changes. To be notified of such changes, subscribe to this email list.
Please visit
this page
for more details.
Don't show this message again
JPL Small-Body Database Browser
Search:
[
help
]
357579 (2004 TG241)
Classification:
Main-belt Asteroid
SPK-ID:
2357579
[
Ephemeris
|
Orbit Diagram
|
Orbital Elements
|
Mission Design
|
Physical Parameters
|
Discovery Circumstances
|
Close-Approach Data
]
[ show orbit diagram ]
Orbital Elements at Epoch 2458600.5 (2019-Apr-27.0) TDB
Reference:
JPL 5
(heliocentric ecliptic J2000)
Element
Value
Uncertainty (1-sigma)
Units
e
.2625812175880843
1.4594e-07
a
2.347645867129373
3.4615e-08
au
q
1.731198156872908
3.6181e-07
au
i
5.883523864871715
1.2058e-05
deg
node
350.3846746671333
0.00010529
deg
peri
29.06814659530304
0.00011086
deg
M
18.73934228982381
4.6188e-05
deg
t
p
2458532.108969274997
(2019-Feb-17.60896927)
0.00016725
TDB
period
1313.854599601992
3.60
2.9059e-05
7.956e-08
d
yr
n
.2740029224763953
6.0601e-09
deg/d
Q
2.964093577385838
4.3705e-08
au
Orbit Determination Parameters
# obs. used (total)
81
data-arc span
5986 days (16.39 yr)
first obs. used
2002-03-18
last obs. used
2018-08-07
planetary ephem.
DE431
SB-pert. ephem.
SB431-N16
condition code
0
norm. resid. RMS
.58717
source
ORB
producer
Otto Matic
solution date
2019-Jul-13 19:21:07
Additional Information
Earth MOID
= .735077 au
Jupiter MOID
= 2.51079 au
T_jup
= 3.506
[ show covariance matrix ]
[
Ephemeris
|
Orbit Diagram
|
Orbital Elements
|
Mission Design
|
Physical Parameters
|
Discovery Circumstances
|
Close-Approach Data
]
Physical Parameter Table
Parameter
Symbol
Value
Units
Sigma
Reference
Notes
absolute magnitude
H
17.6
n/a
MPO455581
357579 (2004 TG241)
Discovered 2004-Sep-10 by LINEAR at Socorro
Reference:
20130327/Numbers.arc
Last Updated:
2013-03-29
[ show close-approach data ]
Alternate Designations
2004 TG241
= 2011 QK95
[
Ephemeris
|
Orbit Diagram
|
Orbital Elements
|
Mission Design
|
Physical Parameters
|
Discovery Circumstances
|
Close-Approach Data
]
2019-Dec-08 18:48 UT
(server date/time)
Site Manager:
Ryan S. Park
Webmaster
:
Alan B. Chamberlin